When you browse on this site, cookies collect data to enhance your experience and personalize the content and advertising you see.
Visit our Privacy Policy to learn more. By continuing to use the site, you agree to this use of cookies and data.

Meteo pe oră la Działdowo

Astăzi, 23 Septembrie, Miercuri

Timp Temperatura Precipitaţii Vânt Presiune Umiditate
00:00 +16°C° 0 mm 3 m/s 744 mmHg 66%
01:00 +16°C° 0 mm 3 m/s 744 mmHg 66%
02:00 +16°C° 0 mm 3 m/s 743 mmHg 66%
03:00 +14°C° 0 mm 3 m/s 743 mmHg 66%
04:00 +14°C° 0 mm 3 m/s 743 mmHg 65%
05:00 +16°C° 0 mm 3 m/s 743 mmHg 65%
06:00 +16°C° 0 mm 3 m/s 743 mmHg 64%
07:00 +17°C° 0 mm 3 m/s 743 mmHg 64%
08:00 +19°C° 0 mm 4 m/s 742 mmHg 58%
09:00 +21°C° 0 mm 4 m/s 742 mmHg 53%
10:00 +23°C° 0 mm 4 m/s 742 mmHg 47%
11:00 +25°C° 0 mm 4 m/s 742 mmHg 45%
12:00 +26°C° 0 mm 4 m/s 742 mmHg 42%
13:00 +27°C° 0 mm 4 m/s 742 mmHg 40%
14:00 +27°C° 0 mm 4 m/s 741 mmHg 42%
15:00 +26°C° 0 mm 3 m/s 741 mmHg 45%
16:00 +26°C° 0 mm 3 m/s 741 mmHg 47%
17:00 +24°C° 0 mm 3 m/s 741 mmHg 51%
18:00 +21°C° 0 mm 3 m/s 741 mmHg 55%
19:00 +19°C° 0 mm 3 m/s 741 mmHg 59%
20:00 +19°C° 0 mm 3 m/s 741 mmHg 61%
21:00 +18°C° 0 mm 2 m/s 741 mmHg 62%
22:00 +18°C° 0 mm 2 m/s 740 mmHg 63%
23:00 +18°C° 0 mm 2 m/s 740 mmHg 65%

Mâine, 24 Septembrie, Joi

Timp Temperatura Precipitaţii Vânt Presiune Umiditate
00:00 +17°C° 0 mm 2 m/s 740 mmHg 67%
01:00 +17°C° 0 mm 2 m/s 740 mmHg 68%
02:00 +17°C° 0 mm 2 m/s 740 mmHg 70%
03:00 +17°C° 0 mm 2 m/s 740 mmHg 72%
04:00 +17°C° 0 mm 2 m/s 740 mmHg 73%
05:00 +17°C° 0 mm 3 m/s 740 mmHg 72%
06:00 +17°C° 0 mm 3 m/s 740 mmHg 71%
07:00 +18°C° 0 mm 3 m/s 740 mmHg 70%
08:00 +20°C° 0 mm 3 m/s 740 mmHg 65%
09:00 +21°C° 0 mm 4 m/s 740 mmHg 60%
10:00 +23°C° 0 mm 4 m/s 741 mmHg 55%
11:00 +25°C° 0 mm 4 m/s 741 mmHg 54%
12:00 +25°C° 0 mm 4 m/s 741 mmHg 53%
13:00 +26°C° 0 mm 4 m/s 741 mmHg 52%
14:00 +25°C° 0.7 mm 3 m/s 741 mmHg 55%
15:00 +25°C° 0.7 mm 3 m/s 740 mmHg 58%
16:00 +24°C° 0.7 mm 2 m/s 740 mmHg 61%
17:00 +21°C° 0.1 mm 2 m/s 740 mmHg 64%
18:00 +20°C° 0.1 mm 2 m/s 740 mmHg 66%
19:00 +19°C° 0.1 mm 1 m/s 741 mmHg 68%
20:00 +19°C° 0 mm 1 m/s 741 mmHg 69%
21:00 +18°C° 0 mm 1 m/s 741 mmHg 71%
22:00 +18°C° 0 mm 1 m/s 741 mmHg 72%
23:00 +16°C° 0 mm 2 m/s 740 mmHg 73%

Poimâine, 25 Septembrie, Vineri

Timp Temperatura Precipitaţii Vânt Presiune Umiditate
00:00 +16°C° 0 mm 2 m/s 740 mmHg 74%
01:00 +16°C° 0 mm 2 m/s 740 mmHg 76%
02:00 +16°C° 0 mm 2 m/s 740 mmHg 77%
03:00 +15°C° 0 mm 2 m/s 739 mmHg 79%
04:00 +14°C° 0 mm 3 m/s 739 mmHg 81%
05:00 +14°C° 0 mm 3 m/s 739 mmHg 82%
06:00 +16°C° 0 mm 3 m/s 738 mmHg 83%
07:00 +15°C° 0 mm 4 m/s 738 mmHg 84%
08:00 +18°C° 0 mm 4 m/s 737 mmHg 79%
09:00 +19°C° 0 mm 5 m/s 737 mmHg 74%
10:00 +21°C° 0 mm 5 m/s 737 mmHg 70%
11:00 +22°C° 0 mm 6 m/s 736 mmHg 65%
12:00 +23°C° 0 mm 7 m/s 736 mmHg 61%
13:00 +23°C° 0 mm 7 m/s 735 mmHg 57%
14:00 +23°C° 0.2 mm 7 m/s 735 mmHg 59%
15:00 +23°C° 0.2 mm 6 m/s 734 mmHg 60%
16:00 +23°C° 0.2 mm 6 m/s 734 mmHg 62%
17:00 +21°C° 1.2 mm 5 m/s 734 mmHg 70%
18:00 +19°C° 1.2 mm 4 m/s 733 mmHg 78%
19:00 +17°C° 1.2 mm 3 m/s 733 mmHg 86%
20:00 +17°C° 0.1 mm 3 m/s 733 mmHg 87%
21:00 +17°C° 0.1 mm 3 m/s 734 mmHg 89%
22:00 +16°C° 0.1 mm 3 m/s 734 mmHg 90%
23:00 +16°C° 0.6 mm 2 m/s 734 mmHg 91%

26 Septembrie, Sâmbătă

Timp Temperatura Precipitaţii Vânt Presiune Umiditate
00:00 +16°C° 0.6 mm 2 m/s 734 mmHg 92%
01:00 +16°C° 0.6 mm 2 m/s 734 mmHg 93%
02:00 +16°C° 0.3 mm 2 m/s 734 mmHg 93%
03:00 +15°C° 0.3 mm 2 m/s 734 mmHg 93%
04:00 +15°C° 0.3 mm 2 m/s 734 mmHg 93%
05:00 +15°C° 0 mm 2 m/s 734 mmHg 92%
06:00 +15°C° 0 mm 2 m/s 734 mmHg 92%
07:00 +14°C° 0 mm 3 m/s 734 mmHg 92%
08:00 +16°C° 0 mm 3 m/s 734 mmHg 88%
09:00 +18°C° 0 mm 4 m/s 734 mmHg 85%
10:00 +19°C° 0 mm 4 m/s 734 mmHg 82%
11:00 +19°C° 0 mm 4 m/s 733 mmHg 79%
12:00 +20°C° 0 mm 4 m/s 733 mmHg 76%
13:00 +21°C° 0 mm 5 m/s 733 mmHg 72%
14:00 +21°C° 0.1 mm 5 m/s 733 mmHg 72%
15:00 +21°C° 0.1 mm 4 m/s 733 mmHg 71%
16:00 +22°C° 0.1 mm 4 m/s 733 mmHg 71%
17:00 +21°C° 0.6 mm 5 m/s 733 mmHg 75%
18:00 +20°C° 0.6 mm 5 m/s 732 mmHg 79%
19:00 +19°C° 0.6 mm 5 m/s 732 mmHg 83%
20:00 +19°C° 0.7 mm 5 m/s 732 mmHg 84%
21:00 +19°C° 0.7 mm 4 m/s 732 mmHg 85%
22:00 +18°C° 0.7 mm 3 m/s 732 mmHg 86%
23:00 +18°C° 0 mm 4 m/s 732 mmHg 80%

27 Septembrie, Duminică

Timp Temperatura Precipitaţii Vânt Presiune Umiditate
00:00 +19°C° 0 mm 5 m/s 732 mmHg 74%
01:00 +19°C° 0 mm 6 m/s 732 mmHg 68%
02:00 +17°C° 0 mm 6 m/s 732 mmHg 68%
03:00 +17°C° 0 mm 6 m/s 732 mmHg 68%
04:00 +17°C° 0 mm 6 m/s 732 mmHg 67%
05:00 +17°C° 0 mm 6 m/s 732 mmHg 68%
06:00 +17°C° 0 mm 6 m/s 732 mmHg 68%
07:00 +17°C° 0 mm 6 m/s 732 mmHg 69%
08:00 +17°C° 0 mm 6 m/s 732 mmHg 70%
09:00 +17°C° 0 mm 7 m/s 732 mmHg 72%
10:00 +18°C° 0 mm 7 m/s 733 mmHg 74%
11:00 +17°C° 0.3 mm 6 m/s 733 mmHg 75%
12:00 +17°C° 0.3 mm 5 m/s 732 mmHg 77%
13:00 +17°C° 0.3 mm 5 m/s 732 mmHg 78%
14:00 +17°C° 0.2 mm 5 m/s 733 mmHg 80%
15:00 +16°C° 0.2 mm 6 m/s 733 mmHg 83%
16:00 +16°C° 0.2 mm 6 m/s 733 mmHg 85%
17:00 +16°C° 0.3 mm 6 m/s 733 mmHg 86%
18:00 +15°C° 0.3 mm 6 m/s 733 mmHg 88%
19:00 +15°C° 0.3 mm 6 m/s 733 mmHg 89%
20:00 +15°C° 0 mm 5 m/s 733 mmHg 87%
21:00 +15°C° 0 mm 5 m/s 733 mmHg 84%
22:00 +15°C° 0 mm 5 m/s 733 mmHg 82%
23:00 +14°C° 0 mm 5 m/s 733 mmHg 84%

28 Septembrie, Luni

Timp Temperatura Precipitaţii Vânt Presiune Umiditate
00:00 +14°C° 0 mm 5 m/s 733 mmHg 87%
01:00 +13°C° 0 mm 5 m/s 733 mmHg 90%
02:00 +11°C° 0 mm 6 m/s 733 mmHg 87%
03:00 +10°C° 0 mm 6 m/s 733 mmHg 84%
04:00 +10°C° 0 mm 6 m/s 733 mmHg 82%
05:00 +9°C° 0 mm 6 m/s 733 mmHg 82%
06:00 +9°C° 0 mm 6 m/s 733 mmHg 82%
07:00 +9°C° 0 mm 6 m/s 734 mmHg 83%
08:00 +9°C° 0 mm 6 m/s 734 mmHg 80%
09:00 +9°C° 0 mm 7 m/s 734 mmHg 78%
10:00 +9°C° 0 mm 7 m/s 735 mmHg 75%
11:00 +10°C° 0 mm 7 m/s 735 mmHg 73%
12:00 +10°C° 0 mm 7 m/s 735 mmHg 72%
13:00 +10°C° 0 mm 7 m/s 736 mmHg 70%
14:00 +10°C° 0.1 mm 7 m/s 736 mmHg 72%
15:00 +9°C° 0.1 mm 6 m/s 736 mmHg 74%
16:00 +9°C° 0.1 mm 6 m/s 736 mmHg 76%
17:00 +9°C° 0.4 mm 6 m/s 737 mmHg 81%
18:00 +8°C° 0.4 mm 5 m/s 737 mmHg 86%
19:00 +8°C° 0.4 mm 5 m/s 737 mmHg 91%
20:00 +8°C° 0.3 mm 5 m/s 738 mmHg 91%
21:00 +8°C° 0.3 mm 4 m/s 738 mmHg 91%
22:00 +8°C° 0.3 mm 4 m/s 738 mmHg 91%
23:00 +8°C° 0.3 mm 4 m/s 738 mmHg 91%
Arată mai mult